Regional Weather Roundup
Issued by NWS

Home | Current Version | Previous Version | Graphics & Text | Print | Product List | Glossary Off
Versions: 1 2 3 4 5 6 7 8 9 10 11 12 13 14 15 16 17 18 19 20 21 22 23 24 25 26 27 28 29 30 31 32 33 34 35 36 37 38 39 40 41 42 43 44 45 46 47 48 49 50

000
ASUS43 KOAX 061210
RWRNE

WEATHER ROUNDUP FOR NEBRASKA
NATIONAL WEATHER SERVICE OMAHA NE
700 AM CDT MON JUL 06 2015

NOTES: SATELLITE DATA IS BEING USED TO AUGMENT CLOUD COVER ABOVE
       12000 FEET.
       "FAIR" INDICATES FEW OR NO CLOUDS BELOW 12,000 FEET WITH NO
       SIGNIFICANT WEATHER AND/OR OBSTRUCTIONS TO VISIBILITY.

  * THESE STATIONS DO NOT REPORT WEATHER SUCH AS RAIN...SNOW OR FOG.

NEZ001>004-019>022-054>056-061300-
NEBRASKA PANHANDLE

CITY           SKY/WX    TMP DP  RH WIND       PRES   REMARKS
SCOTTSBLUFF    CLOUDY    60  58  92 N8        30.16R
6HR MIN TEMP:  60; 6HR MAX TEMP:  63; 6HR PCP:  0.10;

ALLIANCE       CLOUDY    59  57  93 N12       30.14R FOG
6HR MIN TEMP:  59; 6HR MAX TEMP:  63;

CHADRON        CLOUDY    59  56  89 N8        30.15R FOG
6HR MIN TEMP:  58; 6HR MAX TEMP:  61; 6HR PCP:  0.25;

KIMBALL          N/A    N/A N/A N/A MISG        N/A
SIDNEY         CLOUDY    59  58  96 N16G25    30.14R
6HR MIN TEMP:  59; 6HR MAX TEMP:  65; 6HR PCP:  0.01;

$$

NEZ057>060-069>072-079>082-061300-
SOUTHWEST NEBRASKA

CITY           SKY/WX    TMP DP  RH WIND       PRES   REMARKS
NORTH PLATTE   CLOUDY    65  61  87 N21G31    29.99R
6HR MIN TEMP:  65; 6HR MAX TEMP:  70; 6HR PCP:  0.04;

IMPERIAL       CLOUDY    64  60  87 N16G26    30.02R
6HR MIN TEMP:  64; 6HR MAX TEMP:  71; 6HR PCP:  0.03;

LEXINGTON      CLOUDY    68  66  93 N12G17    29.95R
MCCOOK         LGT RAIN  67  64  90 N13       29.95R
6HR MIN TEMP:  67; 6HR MAX TEMP:  78; 6HR PCP:  0.01;

OGALLALA       CLOUDY    65  61  87 N21       30.05R
$$

NEZ005>010-023>029-035>040-094-061300-
NORTH CENTRAL NEBRASKA

CITY           SKY/WX    TMP DP  RH WIND       PRES   REMARKS
VALENTINE      CLOUDY    62  59  90 N13       30.06R FOG
6HR MIN TEMP:  60; 6HR MAX TEMP:  65; 6HR PCP:  0.54;

AINSWORTH      LGT RAIN  61  61 100 N22G30    30.03R
BROKEN BOW     CLOUDY    67  65  93 N13       29.98R
6HR MIN TEMP:  67; 6HR MAX TEMP:  70; 6HR PCP:  0.10;

O`NEILL        RAIN      67  66  97 N10G16    29.96R
ORD            LGT RAIN  68  67  96 NW7       29.93R
6HR MIN TEMP:  68; 6HR MAX TEMP:  71; 6HR PCP:  0.12;

THEDFORD       CLOUDY    64  62  91 N10G17    30.05R
$$

NEZ041-046>049-061>064-073>077-083>087-061300-
SOUTH CENTRAL NEBRASKA

CITY           SKY/WX    TMP DP  RH WIND       PRES   REMARKS
GRAND ISLAND   LGT RAIN  70  68  93 N6        29.89R
6HR MIN TEMP:  68; 6HR MAX TEMP:  84; 6HR PCP:  0.58;

AURORA         CLOUDY    69  69 100 N3        29.87R
HASTINGS       LGT RAIN  70  68  93 NE7       29.88R
6HR MIN TEMP:  70; 6HR MAX TEMP:  84; 6HR PCP:  0.32;

HEBRON         CLOUDY    74  66  77 SE5       29.86S
HOLDREGE       LGT RAIN  68  66  93 N10       29.89S
KEARNEY *      CLOUDY    70  66  88 N8        29.90R
YORK           CLOUDY    68  68 100 CALM      29.86R
$$

NEZ011>018-030>034-042>045-061300-
NORTHEAST NEBRASKA

CITY           SKY/WX    TMP DP  RH WIND       PRES   REMARKS
NORFOLK        RAIN      70  69  97 CALM      29.90R
6HR MIN TEMP:  70; 6HR MAX TEMP:  81; 6HR PCP:  0.06;

ALBION         DRIZZLE   70  66  87 N8        29.89S
BLAIR          CLOUDY    71  67  89 N7        29.88S
COLUMBUS *     CLOUDY    70  64  83 NE5       29.83F
FREMONT        LGT RAIN  72  70  93 SE5       29.87F
TEKAMAH        RAIN      72  71  97 CALM      29.87R
6HR MIN TEMP:  72; 6HR MAX TEMP:  79; 6HR PCP:  0.09;

WAYNE          LGT RAIN  69  69  98 CALM      29.89R
$$

NEZ050>053-065>068-078-088>093-061300-
SOUTHEAST NEBRASKA

CITY           SKY/WX    TMP DP  RH WIND       PRES   REMARKS
LINCOLN        LGT RAIN  72  70  93 E7        29.86S
6HR MIN TEMP:  72; 6HR MAX TEMP:  83; 6HR PCP:  0.02;

OMAHA EPPLEY   LGT RAIN  73  71  93 N9        29.86S
6HR MIN TEMP:  73; 6HR MAX TEMP:  81; 6HR PCP:  0.02;

BEATRICE       CLOUDY    75  67  76 CALM      29.88R
FALLS CITY     CLOUDY    77  72  84 SW3       29.87R
6HR MIN TEMP:  77; 6HR MAX TEMP:  83;

NEBRASKA CITY  CLOUDY    77  67  71 N9        29.87S
PLATTSMOUTH    CLOUDY    74  68  81 NW8       29.87F
$$

NEZ044-045-051>053-067-061300-
OMAHA AREA

CITY           SKY/WX    TMP DP  RH WIND       PRES   REMARKS
OMAHA EPPLEY   LGT RAIN  73  71  93 N9        29.86S
6HR MIN TEMP:  73; 6HR MAX TEMP:  81; 6HR PCP:  0.02;

BLAIR          CLOUDY    71  67  89 N7        29.88S
FREMONT        LGT RAIN  72  70  93 SE5       29.87F
MILLARD        TSTM      73  70  89 N3        29.87S
OFFUTT AFB     LGT RAIN  75  70  83 NW6       29.85F
PLATTSMOUTH    CLOUDY    74  68  81 NW8       29.87F
WAHOO          LGT RAIN  73  70  93 NE3       29.87R
$$



USA.gov is the U.S. government's official web portal to all federal, state and local government web resources and services.